PARS 1

Last updated on Wed Sep 17 2025 00:02:31 GMT+0000 (Coordinated Universal Time)

1 59065U 24039Q 25259.64253725 .00010904 00000+0 29087-3 0 9992 2 59065 97.4502 228.9693 0012119 33.7993 326.4022 15.38244662 86487
UTC large
Height (km)
Speed (km/s)
/
Latitude / Longitude
Inclination (degrees)
Orbital Period (minutes)
Azimuth
Elevation
Range (km)
Doppler Factor

Next 0 passes for location: London (51.5072 / 0.1276)

Sorry there are no passes over London.